Weather reports worldwide

Advertisment
Europlatform, Netherlands (6321): temperature & dewpoint: 22.01.2020 08:00:00 - 28.01.2020 08:00:00 (CET)Europlatform, Netherlands (6321): water temperature: 22.01.2020 08:00:00 - 28.01.2020 08:00:00 (CET)Europlatform, Netherlands (6321): wind speed & gusts: 22.01.2020 08:00:00 - 28.01.2020 08:00:00 (CET)Europlatform, Netherlands (6321): wind direction: 22.01.2020 08:00:00 - 28.01.2020 08:00:00 (CET)Europlatform, Netherlands (6321): reduced air pressure: 22.01.2020 08:00:00 - 28.01.2020 08:00:00 (CET)Europlatform, Netherlands (6321): visibility: 22.01.2020 08:00:00 - 28.01.2020 08:00:00 (CET)
Date & Time tt [°C] td [°C] tw [°C] ff [km/h] ff [kn] fx [km/h] fx [kn] dd ppp [hPa] vv [km]
28.01.2020 08:00:00 6,0 4,0 6,0 57 31 - - W - 10
28.01.2020 07:00:00 4,2 3,7 6,0 61 33 68 37 WSW 987,8 5
28.01.2020 06:00:00 5,3 3,4 6,0 46 25 54 29 SSW 988,0 5
28.01.2020 05:00:00 7,1 5,2 6,0 39 21 54 29 SSW 988,0 10
28.01.2020 04:00:00 8,1 4,3 6,0 28 15 50 27 SW 989,8 10
28.01.2020 03:00:00 6,7 4,9 6,0 57 31 61 33 SSW 990,7 5
28.01.2020 02:00:00 8,5 4,9 6,0 41 22 50 27 SW 991,5 10
28.01.2020 01:00:00 8,4 5,5 6,0 46 25 50 27 SW 992,2 10
28.01.2020 00:00:00 8,0 5,2 6,0 42 23 47 25 SW 992,4 10
27.01.2020 23:00:00 7,7 5,0 6,0 39 21 43 23 SW 992,4 10
27.01.2020 22:00:00 7,2 4,9 6,0 42 23 58 31 SW 993,0 7
27.01.2020 21:00:00 8,1 7,2 6,0 42 23 54 29 SSE 993,5 6
27.01.2020 20:00:00 8,3 7,1 6,1 42 23 50 27 SSE 994,8 9
27.01.2020 19:00:00 8,4 7,3 6,0 42 23 43 23 SSE 996,3 10
27.01.2020 18:00:00 8,5 7,1 6,0 35 19 40 21 SSE 997,8 10
27.01.2020 17:00:00 8,3 6,8 6,0 29 16 43 23 S 999,3 10
27.01.2020 16:00:00 8,1 6,3 6,0 44 24 47 25 S 1000,9 9
27.01.2020 15:00:00 8,4 6,9 6,0 42 23 50 27 S 1001,4 10
27.01.2020 14:00:00 8,7 6,7 6,0 42 23 50 27 S 1002,1 10
27.01.2020 13:00:00 8,5 7,0 6,0 41 22 50 27 S 1002,7 10
27.01.2020 12:00:00 8,6 7,0 6,0 48 26 54 29 S 1003,5 10
27.01.2020 11:00:00 8,8 7,2 6,0 36 19 47 25 S 1004,2 16
27.01.2020 10:00:00 8,9 7,6 - 36 19 43 23 S 1004,7 16
27.01.2020 09:00:00 9,0 7,9 - 32 18 43 23 SSW 1004,9 15
27.01.2020 08:00:00 9,3 7,7 - 36 19 43 23 SSW 1005,2 16
27.01.2020 07:00:00 9,4 8,0 - 36 19 54 29 SW 1005,4 16
27.01.2020 06:00:00 9,0 8,3 - 32 18 43 23 SSW 1005,4 14
27.01.2020 05:00:00 9,0 8,1 - 36 19 47 25 SSW 1005,8 16
27.01.2020 04:00:00 9,1 7,9 - 40 21 50 27 SSW 1006,1 14
27.01.2020 03:00:00 8,9 7,8 - 40 21 50 27 S 1006,3 13
27.01.2020 02:00:00 8,7 7,6 - 47 25 58 31 S 1006,7 11
27.01.2020 01:00:00 8,3 7,3 - 47 25 58 31 S 1006,9 10
27.01.2020 00:00:00 8,4 6,9 - 47 25 68 37 S 1007,0 12
26.01.2020 23:00:00 8,0 7,0 - 47 25 61 33 S 1007,3 4,8
26.01.2020 22:00:00 7,8 6,7 - 47 25 58 31 S 1008,2 7
26.01.2020 21:00:00 7,8 6,3 - 47 25 54 29 S 1009,0 8
26.01.2020 20:00:00 7,8 5,8 - 47 25 58 31 S 1009,8 12
26.01.2020 19:00:00 7,7 6,1 - 43 23 54 29 S 1010,1 11
26.01.2020 18:00:00 - - - - - - - - - -
26.01.2020 17:00:00 7,9 6,5 - 40 21 47 25 S 1011,1 9
26.01.2020 16:00:00 7,9 6,3 - 36 19 43 23 S 1011,4 10
26.01.2020 15:00:00 - - - - - - - - - -
26.01.2020 14:00:00 7,1 6,0 - 32 18 40 21 S 1012,3 8
26.01.2020 13:00:00 7,0 5,7 - 32 18 36 19 S 1012,6 8
26.01.2020 12:00:00 6,7 5,9 - 29 16 32 18 SSE 1013,5 6
26.01.2020 11:00:00 - - - - - - - - - -
26.01.2020 10:00:00 - - - - - - - - - -
26.01.2020 09:00:00 - - - - - - - - - -
26.01.2020 08:00:00 - - - - - - - - - -
26.01.2020 07:00:00 - - - - - - - - - -
26.01.2020 06:00:00 - - - - - - - - - -
26.01.2020 05:00:00 - - - - - - - - - -
26.01.2020 04:00:00 - - - - - - - - - -
26.01.2020 03:00:00 - - - - - - - - - -
26.01.2020 02:00:00 - - - - - - - - - -
26.01.2020 01:00:00 - - - - - - - - - -
26.01.2020 00:00:00 - - - - - - - - - -
25.01.2020 23:00:00 - - - - - - - - - -
25.01.2020 22:00:00 - - - - - - - - - -
25.01.2020 21:00:00 - - - - - - - - - -
25.01.2020 20:00:00 - - - - - - - - - -
25.01.2020 19:00:00 - - - - - - - - - -
25.01.2020 18:00:00 - - - - - - - - - -
25.01.2020 17:00:00 - - - - - - - - - -
25.01.2020 16:00:00 - - - - - - - - - -
25.01.2020 15:00:00 - - - - - - - - - -
25.01.2020 14:00:00 - - - - - - - - - -
25.01.2020 13:00:00 - - - - - - - - - -
25.01.2020 12:00:00 - - - - - - - - - -
25.01.2020 11:00:00 - - - - - - - - - -
25.01.2020 10:00:00 - - - - - - - - - -
25.01.2020 09:00:00 - - - - - - - - - -
25.01.2020 08:00:00 - - - - - - - - - -
25.01.2020 07:00:00 - - - - - - - - - -
25.01.2020 06:00:00 - - - - - - - - - -
25.01.2020 05:00:00 - - - - - - - - - -
25.01.2020 04:00:00 - - - - - - - - - -
25.01.2020 03:00:00 - - - - - - - - - -
25.01.2020 02:00:00 4,9 3,5 6,0 31 17 32 18 S 1021,6 4,7
25.01.2020 01:00:00 5,2 3,7 6,0 29 16 32 18 S 1021,7 5
25.01.2020 00:00:00 5,1 3,6 6,0 29 16 32 18 S 1021,9 4,9
24.01.2020 23:00:00 5,5 4,0 6,0 29 16 32 18 S 1022,0 5
24.01.2020 22:00:00 5,7 4,3 6,0 24 13 29 16 S 1022,2 5
24.01.2020 21:00:00 5,6 4,1 6,0 24 13 29 16 S 1022,4 7
24.01.2020 20:00:00 5,8 4,4 6,0 26 14 29 16 S 1022,3 7
24.01.2020 19:00:00 5,3 4,3 6,0 26 14 29 16 S 1022,3 6
24.01.2020 18:00:00 5,1 4,3 6,0 28 15 29 16 S 1022,1 4,9
24.01.2020 17:00:00 4,9 4,4 6,0 29 16 32 18 S 1021,9 5
24.01.2020 16:00:00 4,6 4,1 6,0 29 16 32 18 S 1021,9 3,8
24.01.2020 15:00:00 5,2 4,4 6,0 29 16 32 18 S 1022,0 3,5
24.01.2020 14:00:00 5,2 4,0 6,0 26 14 32 18 S 1022,6 4,5
24.01.2020 13:00:00 5,5 3,9 6,0 21 11 25 14 S 1023,3 6
24.01.2020 12:00:00 5,3 3,6 6,0 18 10 22 12 S 1023,8 6
24.01.2020 11:00:00 5,1 3,4 6,0 22 12 25 14 S 1023,6 7
24.01.2020 10:00:00 5,2 3,5 6,0 21 11 22 12 S 1023,4 6
24.01.2020 09:00:00 5,3 3,3 6,0 18 10 22 12 S 1023,7 7
24.01.2020 08:00:00 5,0 2,8 6,0 21 11 22 12 SSE 1022,9 7
24.01.2020 07:00:00 5,4 2,6 6,0 13 7 14 8 SSE 1023,1 10
24.01.2020 06:00:00 5,5 2,5 6,0 11 6 14 8 S 1023,2 10
24.01.2020 05:00:00 5,7 2,6 6,0 9 5 18 10 SE 1023,7 10
24.01.2020 04:00:00 5,5 2,5 6,0 15 8 18 10 SE 1023,9 10
24.01.2020 03:00:00 5,5 2,8 6,0 13 7 18 10 SE 1024,9 8
24.01.2020 02:00:00 5,4 2,9 6,0 21 11 22 12 SE 1025,3 7
24.01.2020 01:00:00 5,9 3,3 6,0 11 6 14 8 SE 1026,1 8
24.01.2020 00:00:00 6,1 3,6 6,0 13 7 14 8 ESE 1026,4 10
23.01.2020 23:00:00 6,2 3,5 6,0 9 5 14 8 E 1026,5 10
23.01.2020 22:00:00 6,3 3,7 6,0 13 7 14 8 ESE 1026,8 10
23.01.2020 21:00:00 6,6 4,0 6,0 11 6 14 8 E 1027,0 10
23.01.2020 20:00:00 6,6 4,4 6,0 8 4 11 6 E 1027,6 10
23.01.2020 19:00:00 6,6 4,5 6,0 11 6 14 8 ESE 1027,9 10
23.01.2020 18:00:00 6,6 4,3 6,0 11 6 14 8 SE 1028,2 10
23.01.2020 17:00:00 6,7 5,0 6,0 9 5 14 8 SE 1028,7 9
23.01.2020 16:00:00 7,0 5,8 6,0 11 6 14 8 SE 1029,2 8
23.01.2020 15:00:00 7,1 6,0 6,0 8 4 11 6 ESE 1029,6 5
23.01.2020 14:00:00 7,2 6,3 6,0 11 6 11 6 SSE 1030,6 7
23.01.2020 13:00:00 7,2 6,8 6,0 9 5 18 10 SSE 1031,6 8
23.01.2020 12:00:00 7,6 7,1 6,0 4 2 7 4 SE 1032,2 10
23.01.2020 11:00:00 7,5 7,2 6,0 5 3 7 4 ESE 1032,9 10
23.01.2020 10:00:00 7,5 7,4 6,0 2 1 4 2 - 1033,3 5
23.01.2020 09:00:00 7,8 7,6 6,0 2 1 4 2 NW 1033,3 3,3
23.01.2020 08:00:00 7,9 7,7 6,0 4 2 4 2 WNW 1033,4 7
23.01.2020 07:00:00 7,6 7,4 6,0 4 2 7 4 WSW 1033,5 3,5
23.01.2020 06:00:00 7,4 7,1 6,0 8 4 11 6 SW 1034,0 5
23.01.2020 05:00:00 7,5 6,9 6,0 11 6 14 8 SW 1034,5 4,8
23.01.2020 04:00:00 7,6 6,7 6,0 13 7 14 8 SSW 1034,9 9
23.01.2020 03:00:00 7,7 6,9 6,0 11 6 14 8 SSW 1035,5 9
23.01.2020 02:00:00 7,7 7,0 6,0 11 6 14 8 S 1035,8 8
23.01.2020 01:00:00 8,0 6,9 6,0 9 5 11 6 SSE 1036,4 10
23.01.2020 00:00:00 8,2 6,6 6,0 11 6 11 6 SE 1036,5 10
22.01.2020 23:00:00 8,5 6,4 6,0 8 4 11 6 ESE 1036,6 10
22.01.2020 22:00:00 8,5 6,4 6,0 8 4 7 4 SE 1036,5 10
22.01.2020 21:00:00 8,5 7,2 6,0 8 4 7 4 ESE 1036,7 10
22.01.2020 20:00:00 8,7 6,1 6,0 4 2 14 8 ENE 1036,7 10
22.01.2020 19:00:00 8,8 5,8 6,0 13 7 14 8 NNE 1036,5 10
22.01.2020 18:00:00 8,5 8,1 6,0 5 3 7 4 N 1036,4 6
22.01.2020 17:00:00 8,5 8,1 6,0 9 5 14 8 WNW 1036,2 5
22.01.2020 16:00:00 8,2 7,7 6,0 13 7 14 8 W 1036,4 4,4
22.01.2020 15:00:00 7,8 7,5 6,0 13 7 14 8 W 1036,4 4,7
22.01.2020 14:00:00 7,3 7,2 6,0 15 8 14 8 WSW 1036,5 5
22.01.2020 13:00:00 6,7 6,5 6,0 11 6 14 8 SW 1037,1 3,5
22.01.2020 12:00:00 6,7 6,4 6,0 8 4 7 4 SSW 1037,4 10
22.01.2020 11:00:00 6,9 6,1 6,0 5 3 7 4 W 1037,5 3,3
22.01.2020 10:00:00 6,7 6,3 6,0 5 3 11 6 NW 1037,3 2,9
22.01.2020 09:00:00 7,0 5,0 6,0 0 0 7 4 N 1037,0 10
22.01.2020 08:00:00 7,0 4,3 6,0 5 3 14 8 NW 1036,8 10

tt = temperature
td = dewpoint
tw = water temperature
ff = wind speed
fx = gusts
dd = wind direction
ppp = reduced air pressure
vv = visibility

Next stations